Torna al catalogo

COSMOS 2251 DEB

AttivoLEO
NORAD 35703·DEBRIS·🇷🇺 Russia

Lanciato Jun 16, 1993 da Plesetsk Cosmodrome

Loading…

Prossimi Passaggi (prossime 24 ore)

TLE

In scadenzaSource: Space-Track

Epoca: Sep 12, 2026, 04:06 UTC

1 35703U 93036APY 26255.17088995  .00003647  00000-0  33193-3 0  9998
2 35703  74.0392 213.5735 0063338 212.8560 146.8681 14.94060658706952

Traccia COSMOS 2251 DEB in tempo reale con AllMySat

Download on the App Store